Weather Roundup
Issued by NWS

Home | Current Version | Previous Version | Text Only | Print | Product List | Glossary On
Versions: 1 2 3 4 5 6 7 8 9 10 11 12 13 14 15 16 17 18 19 20 21 22 23 24 25 26 27 28 29 30 31 32 33 34 35 36 37 38 39 40 41 42 43 44 45 46 47 48 49 50
000
NZUS93 KARX 270710
HRRWXR

CURRENT HOURLY OBSERVATIONS ACROSS
MUCH OF THE UPPER MISSISSIPPI VALLEY
NATIONAL WEATHER SERVICE LA CROSSE WI
100 AM CST TUE JAN 27 2015


...SOUTHEAST MINNESOTA...


CITY           SKY/WX    TMP DP  RH WIND       PRES   REMARKS
ROCHESTER      CLOUDY    34  30  85 NW14      29.97R WCI  25
ROCHESTER/MAYO CLOUDY    35  30  82 W9        29.98R WCI  28
WINONA         CLOUDY    32  30  93 N5        30.00R WCI  27
AUSTIN         CLOUDY    34  30  86 NW6       29.98R WCI  29
ALBERT LEA     PTCLDY    34  30  86 NW6       29.99R WCI  29
DODGE CENTER   CLOUDY    34  30  86 NW12      29.97S WCI  25
PRESTON        CLOUDY    34  29  82 NW8       29.96R WCI  27
OWATONNA       CLOUDY    34  30  86 NW5       30.00R WCI  30
FARIBAULT      CLOUDY    34  30  86 NW5       30.00R WCI  30
$$

...ELSEWHERE IN MINNESOTA...


CITY           SKY/WX    TMP DP  RH WIND       PRES   REMARKS
MINNEAPOLIS    CLOUDY    35  27  72 N7        30.01R WCI  29
INTNL FALLS    CLOUDY    24  20  84 NW5       30.00R WCI  18
DULUTH         CLOUDY    27  22  81 NW8       29.98R WCI  19
RED WING       CLOUDY    37  28  70 N3        29.99R
REDWOOD FALLS  CLOUDY    32  29  88 NW3       30.03S
MANKATO        CLOUDY    34  28  80 NW8       30.02R WCI  27
WORTHINGTON    CLEAR     30  28  93 NW6       30.03R WCI  24
FAIRMONT       CLEAR     32  27  80 NW7       30.01R WCI  26
$$

...SOUTHWEST WISCONSIN...


CITY           SKY/WX    TMP DP  RH WIND       PRES   REMARKS
LA CROSSE      CLOUDY    30  27  88 N6        29.99R FOG     WCI  24
PRAIRIE DU CHI CLOUDY    30  27  90 CALM      29.97R FOG
BOSCOBEL       CLOUDY    27  25  92 CALM      29.96R FOG
LONE ROCK      CLOUDY    25  23  92 CALM      29.95R
PLATTEVILLE    CLOUDY    27  26  96 W5        29.93R WCI  21
FORT MC COY    CLOUDY    27  26  99 N5        29.98R FOG     WCI  21
CAMP DOUGLAS   CLOUDY    25  25 100 N5        29.96R WCI  19
VIROQUA        CLOUDY    29  29 100 NW8       29.94R WCI  21
WIS DELLS      CLOUDY    23  22  93 CALM      29.93R FOG
$$

...ELSEWHERE IN WISCONSIN...


CITY           SKY/WX    TMP DP  RH WIND       PRES   REMARKS
MILWAUKEE      LGT SNOW  26  22  84 NW3       29.94R
MADISON        CLOUDY    25  22  88 CALM      29.93R FOG
GREEN BAY      CLOUDY    24  20  84 E8        29.98R WCI  15
EAU CLAIRE     CLOUDY    28  24  85 CALM      29.99R
BLACK RVR FLS  CLOUDY    26  26 100 CALM      29.97R
MEDFORD        CLOUDY    20  19  93 CALM      29.94R FOG
WAUSAU         CLOUDY    22  19  89 CALM      29.93R
WIS RAPIDS     CLOUDY    23  19  85 NE3       29.96R
MARSHFIELD     CLOUDY    23  20  88 N3        29.94R FOG
RICE LAKE      CLOUDY    30  26  84 N6        30.00R WCI  24
$$

...NORTHEAST IOWA...


CITY           SKY/WX    TMP DP  RH WIND       PRES   REMARKS
DECORAH        CLOUDY    36  32  87 N8        29.94R WCI  29
MASON CITY     CLEAR     32  29  88 NW12      30.00R WCI  23
CHARLES CITY   CLOUDY    36  34  93 NW13      29.98R WCI  27
OELWEIN        CLOUDY    34  32  93 NW9       29.96R WCI  26
$$

...ELSEWHERE IN IOWA...


CITY           SKY/WX    TMP DP  RH WIND       PRES   REMARKS
DES MOINES     MOCLDY    37  32  82 NW7       30.03R WCI  32
IOWA CITY      CLEAR     34  31  88 NW8       29.97R WCI  27
FORT DODGE     PTCLDY    36  30  80 N6        30.03S WCI  31
$$

...NORTHERN ILLINOIS...


CITY           SKY/WX    TMP DP  RH WIND       PRES   REMARKS
CHICAGO-OHARE  FLURRIES  27  24  89 CALM      29.92R
CHICAGO-MIDWAY LGT SNOW  29  25  85 E3        29.93R FOG
MOLINE         MOCLDY    32  30  92 NW7       29.93R WCI  26
ROCKFORD       CLOUDY    27  24  89 N5        29.94R FOG     WCI  22
PEORIA         CLOUDY    34  30  85 N3        29.91R
$$

NOTE: "FAIR" INDICATES FEW OR NO CLOUDS BELOW 12,000 FEET WITH NO
SIGNIFICANT WEATHER AND/OR OBSTRUCTIONS TO VISIBILITY. WIND
SPEEDS ARE IN MILES-PER-HOUR.



USA.gov is the U.S. government's official web portal to all federal, state and local government web resources and services.